Погода в Салехарде

Погода в Салехарде : погода сейчас, прогноз погоды и архив. Всё, что Вы хотите узнать о погоде в Салехарде!

Хотите узнать прогноз погоды в Салехарде? Тогда Вам сюда: Погода в Салехарде

Поиск расширенной информации на нашем сайте:

Другие новости

Новости СМИ2

Главная страница сайта

Новости сайта

03.07.2017

Напоминаем, что на нашем специализированном сайте Метеоцентр.Азия вы можете получить высокодетализированные автоматические прогнозы погоды по пунктам России, СНГ и мира в авиационном формате (включающие направление и скорость ветра, видимость, явления погоды, количество и форму облачности, нижнюю и верхнюю границу облачности).


Погода в Салехарде - сегодня

Время (UTC), дата Ветер
(°,м/с) 
Видим.   Явления Облачность Т
(°С)
Тd
(°С)
f(%) Тe
(°С)
Pmin
(гПа)
dP
(гПа)
Po
(мм)
O2
(г/м3)
Тmin Tmax R s Состояние
почвы
21 20.11.17 тихо ()   10 км  {снег} [диам. изморози 9 мм]  10/10 200 м 
[St]
-17.1 -19.3 83 -17  1017.5  0.6  761  329           
00 21.11.17 040 (СВ) 4000 м  слаб. снег [диам. изморози 9 мм]  10/8 300 м средняя 
[Frnb|Ac As]
-13 -14.8 86 -13  1016.7  -0.8  761  323           
03 21.11.17 050 (СВ) 4000 м  слаб. снег [диам. изморози 9 мм]  10/8 300 м средняя 
[Frnb|Ac As]
-12.2 -13.9 87 -14  1015.8  -0.9  760  322  -17.4    0.6  28  равномерный
сухой снег
100% 
06 21.11.17 040 (СВ) 4000 м  слаб. снег [диам. изморози 8 мм]  10/10 300 м 
[Ns]
-11.8 -13.5 87 -16  1015.1  -0.6  760  321           
09 21.11.17 040 (СВ) 4000 м  слаб. снег [диам. изморози 4 мм]  10/5 300 м средняя 
[Frnb|Ac As]
-12.5 -14.3 86 -17  1016.4  1.3  761  323           
12 21.11.17 040 (СВ) 10 км  позёмок{снег} [диам. изморози 0 мм]  10/8 600 м средняя 
[Sc|Ac trans]
-14.4 -16.5 84 -19  1018.7  2.3  762  326           
15 21.11.17 050 (СВ) 6{10}  4000 м  слаб. ливневой снег  10/8 300 м кучево-дожд., средняя 
[Cb calv|As trans]
-15.3 -17.5 83 -22  1021.2  2.4  764  328    -11.8     
18 21.11.17 040 (СВ) 4{10}  4000 м  слаб. снег{ливн. осадки}  10/8 300 м средняя 
[Frnb|Ac As]
-16.2 -18.5 82 -21  1023  1.8  766  329           
21 21.11.17 040 (СВ) 4000 м  слаб. снег  10/8 300 м средняя 
[Frnb|Ac As]
-17.5 -20 81 -23  1024.9  1.9  767  332           
00 22.11.17 040 (СВ) 4000 м  слаб. снег  10/8 300 м средняя 
[Frnb|As trans]
-18.7 -21.3 80 -23  1025.6  0.8  768  334           
03 22.11.17 040 (СВ) 4000 м  слаб. снег  10/5 300 м средняя 
[Frnb|As trans]
-19.3 -22 79 -25  1025.6  -0.1  767  334  -19.3    0.8  27  равномерный
сухой снег
100% 
06 22.11.17 040 (СВ) 10 км  слаб. снег  10/8 600 м средняя 
[Sc|Ac As]
-19.7 -22.4 79 -24  1026.3  0.8  768  335  -19.8         
09 22.11.17 040 (СВ) 10 км  слаб. снег  10/8 600 м средняя 
[Sc|As op]
-17.9 -20.4 81 -24  1025.8  -0.5  768  333           
12 22.11.17 050 (СВ) 5{10}  4000 м  слаб. снег  10/8 300 м средняя 
[Frnb|As op]
-17.4 -19.8 82 -23  1026  0.2  768  332           
15 22.11.17 040 (СВ) 6-10{10}  4000 м  слаб. снег  10/8 300 м средняя 
[Frnb|Ac As]
-18.5 -21.1 80 -25  1026.2  0.2  768  334    -17.2  0.3     
18 22.11.17 050 (СВ) 7-12{13}  4000 м  слаб. снег  10/8 300 м средняя 
[Frnb|Ac As]
-18.4 -20.9 81 -26  1025.6  -0.6  767  333           
21 22.11.17 050 (СВ) 7-12{13}  4000 м  слаб. снег  10/10 300 м 
[Ns]
-19.1 -21.7 80 -27  1025.5  -0.1  767  334           
00 23.11.17 050 (СВ) 6{13}  4000 м  слаб. снег  10/10 300 м 
[Ns]
-19.5 -22.2 79 -27  1025.3  -0.2  767  335           
03 23.11.17 050 (СВ) 8-13{13}  4000 м  слаб. снег  10/10 300 м 
[Ns]
-19.8 -22.6 78 -28  1024.8  -0.6  767  335  -19.8    28  равномерный
сухой снег
100% 
06 23.11.17 050 (СВ) 8-13{14}  4000 м  снег  10/10 200 м 
[Ns]
-19.9 -22.7 78 -28  1024  -0.8  766  335  -20         
09 23.11.17 040 (СВ) 6-10{13}  10 км  слаб. снег  10/8 300 м средняя 
[Frnb|As op]
-18 -20.7 79 -25  1023.1  -0.9  766  332           
12 23.11.17 050 (СВ) 5-10{13}  4000 м  слаб. снег  10/8 300 м средняя 
[Frnb|Ac As]
-16.7 -19.4 80 -23  1022.4  -0.7  765  330           
15 23.11.17 050 (СВ) 6-10{12}  4000 м  слаб. снег  10/8 300 м средняя 
[Frnb|As op]
-16 -18.6 80 -22  1020.4  -2  764  328    -16     
18 23.11.17 040 (СВ) 6{12}  4000 м  слаб. снег  10/8 300 м средняя 
[Frnb|Ac As]
-16.3 -18.7 82 -23  1018.1  -2.3  762  328           
21 23.11.17 050 (СВ) 2000 м  снег  10/10 200 м 
[Ns]
-16.1 -18.6 81 -23  1015.6  -2.5  760  327           
Время (UTC), дата Ветер
(°,м/с) 
Видим.   Явления Облачность Т
(°С)
Тd
(°С)
f(%) Тe
(°С)
Pmin
(гПа)
dP
(гПа)
Po
(мм)
O2
(г/м3)
Тmin Tmax R s Состояние
почвы

Для получения пояснительной информации подведите курсор к названию столбца.

ПОГОДА в Салехарде - архив

Всё, что Вы хотите узнать о погоде в Салехарде - удобно и подробно!

Выберите нужную дату (начиная с 1 января 2015* года) и нажмите кнопку "Найти".
Будут отображены архивные сводки погоды по пункту Салехард, начиная с указанной даты.


Отображать данные в формате CSV (для использования в таблицах Excel)


Внимание! Наш архив погоды предназначен исключительно для личного некоммерческого использования в познавательных целях. Если Вам необходимы официальные справки о состоянии погоды (для производственных, юридических, коммерческих и т.п. целей), обращайтесь в органы Росгидромета.

*Примечание: данная дата относится к архиву по метеостанциям СССР (Россия, СНГ, Балтия).
Архив по метеостанциям Зарубежной Европы и Азии (кроме Китая) хранится 10 дней, по другим регионам земного шара (Китай, Африка, Америка, Австралия, Океания) - 1 день.

Салехард - район местоположения метеостанции


Название, широта, долгота, высота метеостанции:
Салехард (город) 66.5°ш. 66.7°д. 16 м над ур. моря [Российская Федерация]

Дополнительная информация

В oтличие oт бoльшинства пoгoдных сайтoв мы публикуем пoдрoбную метеoинфoрмацию в детальнoм прoфессиoнальнoм фoрмате.

Характеристики температуры и влажнoсти вoздуха измеряются на высoте 2 м в тени вдали oт зданий и деревьев.
Скoрoсть ветра измеряется на высoте 10 м (на урoвне рoста челoвека скoрoсть ветра ниже в 1.5-2 раза). Если метеoстанция нахoдится в гoрoде или в лесу, тo скoрoсть ветра занижена на 2-4 м/с пo сравнению с oткрытым местoм. Скoрoсть ветра над акватoриями крупных рек и oзёр, а также на вершинах хoлмoв на 2-5 м/с выше, чем в oбычных услoвиях.
Атмoсфернoе давление в разных тoчках местнoсти мoжет значительнo oтличаться oт давления на метеoстанции, в зависимoсти oт услoвий рельефа (при пoдъёме на 10 м давление пoнижается примернo на 1 мм рт.ст.).